Regional Weather Roundup
Issued by NWS

Home | Current Version | Previous Version | Text Only | Print | Product List | Glossary Off
Versions: 1 2 3 4 5 6 7 8 9 10 11 12 13 14 15 16 17 18 19 20 21 22 23 24 25 26 27 28 29 30 31 32 33 34 35 36 37 38 39 40 41 42 43 44 45 46 47 48 49 50

392
ASUS44 KJAN 011610
RWRMS

MISSISSIPPI HOURLY WEATHER ROUNDUP
NATIONAL WEATHER SERVICE JACKSON MS
1000 AM CST SUN FEB 01 2015

NOTE: "FAIR: INDICATES FEW OR NO CLOUDS BELOW 12,000 FEET WITH NO
SIGNIFICANT WEATHER AND/OR OBSTRUCTIONS TO VISIBILITY.

MSZ001>002-007>008-010>013-018>021-025>028-034>036-011700-
NORTHWEST MISSISSIPPI

CITY           SKY/WX    TMP DP  RH WIND       PRES   REMARKS
CLARKSDALE     CLOUDY    55  55 100 S20G25    29.86F
CLEVELAND      LGT RAIN  55  55  99 S16G23    29.88F
GREENWOOD      CLOUDY    57  53  86 S17       29.92F
GREENVILLE     CLOUDY    58  54  86 S17       29.88F
GRENADA        LGT RAIN  54  52  94 S10G18    29.92F
OLIVE BRANCH   RAIN      52  52 100 S18G26    29.84
OXFORD         CLOUDY    50  50 100 S12G21    29.90F FOG
TUNICA         RAIN      54  52  94 S20G25    29.84F
$$

MSZ003>006-009-014>017-022>024-029>033-037>039-011700-
NORTHEAST MISSISSIPPI

CITY           SKY/WX    TMP DP  RH WIND       PRES   REMARKS
COLUMBUS AFB   CLOUDY    48  46  93 S9        30.00F
CORINTH        DRIZZLE   48  46  93 S17G24    29.89F
GOLDN TRIANGLE CLOUDY    45  43  93 S14       29.99F FOG
STARKVILLE     CLOUDY    45  45 100 SE9       29.99F
TUPELO         CLOUDY    49  46  90 SW15G25   29.95F
$$

MSZ040-058-011700-
CENTRAL MISSISSIPPI

CITY           SKY/WX    TMP DP  RH WIND       PRES   REMARKS
JACKSON INTL   CLOUDY    56  53  90 S15       29.97F
JACKSON HAWKNS CLOUDY    57  54  89 S15G24    29.97S
MERIDIAN KEY   CLOUDY    55  52  89 S12G21    30.01F
MERIDIAN NAS   CLOUDY    48  46  93 SE7       30.03F
RAYMOND        PTSUNNY   59  55  88 S7        29.96S
VICKSBURG      PTSUNNY   59  56  89 S12       29.95F
$$

MSZ059>079-011700-
SOUTH MISSISSIPPI

CITY           SKY/WX    TMP DP  RH WIND       PRES   REMARKS
BROOKHAVEN     PTSUNNY   61  57  88 S9        29.99F
HATTIESBURG    PTSUNNY   60  57  89 VRB5      30.04F
MCCOMB         CLOUDY    62  57  83 S9        29.99F
NATCHEZ        CLOUDY    63  57  82 S10       29.97S
PINE BELT      CLOUDY    57  54  88 S10       30.04R
$$

MSZ080>082-011700-
COASTAL MISSISSIPPI

CITY           SKY/WX    TMP DP  RH WIND       PRES   REMARKS
BAY ST LOUIS   LGT RAIN  61  55  82 SW6       30.04R
BILOXI         LGT RAIN  62  60  95 S7        30.04R FOG
PASCAGOULA     CLOUDY    64  59  83 SE12      30.04S
GULFPORT       LGT RAIN  62  59  90 S6        30.04R FOG
$$



USA.gov is the U.S. government's official web portal to all federal, state and local government web resources and services.